Regional Weather Roundup
Issued by NWS Sterling, VA

Home | Current Version | Previous Version | Graphics & Text | Print | Product List | Glossary On
Versions: 1 2 3 4 5 6 7 8 9 10 11 12 13 14 15 16 17 18 19 20 21 22 23 24 25 26 27
000
ASUS41 KLWX 171811
RWRLWX

REGIONAL WEATHER ROUNDUP
NATIONAL WEATHER SERVICE BALTIMORE MD/WASHINGTON DC
100 PM EST FRI NOV 17 2017

Note: "FAIR" indicates few or no clouds below 12,000 feet
with no significant weather and/or obstructions to visibility.
 TC=TEMPERATURE CELSIUS

 * =Non NWS site. Station does not report precipitation (e.g. rain,
    snow, etc.), thunder, or fog.

DCZ001-MDZ009-015-VAZ040>042-051-053>054-171900-
WASHINGTON METRO

CITY           SKY/WX    TMP DP  RH WIND       PRES   REMARKS
WASHINGTON NAT MOSUNNY   53  28  38 NW10      30.18F
DULLES         SUNNY     51  27  39 NW10      30.18F
ANDREWS AFB    SUNNY     50  27  40 NW9G20    30.15F
FT BELVOIR     SUNNY     53  27  36 NW8       30.17F
QUANTICO       SUNNY     54  27  35 N7        30.19F
COLLEGE PARK*  SUNNY     50  26  39 NW7       30.17F
LEESBURG*      SUNNY     52  30  43 N13       30.18F
MANASSAS*      SUNNY     53  29  39 N9        30.18F
GAITHERSBURG*  SUNNY     49  28  44 NW8       30.17F

$$

MDZ006>007-011-014-171900-
BALTIMORE METRO

CITY           SKY/WX    TMP DP  RH WIND       PRES   REMARKS
BWI AIRPORT    MOSUNNY   51  28  41 NW7G23    30.16F
MD SCIENCE CTR   N/A     50  26  39 MISG      30.17F
MARTIN STATE   MOSUNNY   52  28  40 NW14G20   30.18F
ANNAPOLIS      SUNNY     51  31  46 NW10      30.16F
FORT MEADE*    SUNNY     50  28  43 N6        30.19F

$$

MDZ012-015-019>023-171900-
MARYLAND EASTERN SHORE

CITY           SKY/WX    TMP DP  RH WIND       PRES   REMARKS
OCEAN CITY     SUNNY     52  30  43 NW15G23   30.13S
SALISBURY      SUNNY     51  30  44 NW14G23   30.14S
CAMBRIDGE*     SUNNY     50  30  46 NW12G17   30.16F
EASTON*        MOSUNNY   50  28  43 NW13G18   30.19F

$$

MDZ017>025-171900-
SOUTHERN MARYLAND

CITY           SKY/WX    TMP DP  RH WIND       PRES   REMARKS
PATUXENT RIVER MOSUNNY   52  30  43 NW13      30.17F
ST INIGOES     SUNNY     53  32  44 W10       30.16F
LEONARDTOWN*   SUNNY     52  28  40 N6        30.18F

$$

MDZ003>005-171900-
NORTH CENTRAL MARYLAND

CITY           SKY/WX    TMP DP  RH WIND       PRES   REMARKS
FREDERICK*     SUNNY     52  23  32 NW6       30.20F
HAGERSTOWN APT SUNNY     49  27  42 NW7       30.16F
WESTMINSTER*   SUNNY     46  27  46 NW7G17    30.15F

$$

MDZ501>502-171900-
WESTERN MARYLAND

CITY           SKY/WX    TMP DP  RH WIND       PRES   REMARKS
OAKLAND*       CLOUDY    34  27  75 NW6       30.12S
CUMBERLAND*    SUNNY     50  27  40 N3        30.22F

$$

VAZ025>031-171900-
SHENANDOAH VALLEY

CITY           SKY/WX    TMP DP  RH WIND       PRES   REMARKS
WINCHESTER*    SUNNY     48  28  46 NW8       30.16F
FRONT ROYAL*   SUNNY     52  28  40 CALM      30.16F
LURAY*         CLOUDY    50  28  43 SE5       30.18F
NEW MARKET*    CLOUDY    49  26  40 SE6       30.17F
STAUNTON*      SUNNY     47  28  48 CALM      30.20F
WAYNESBORO*    MOSUNNY   48  24  38 CALM      30.18F

$$

WVZ021-048>050-054>055-171900-
EASTERN WEST VIRGINIA PANHANDLE

CITY           SKY/WX    TMP DP  RH WIND       PRES   REMARKS
MARTINSBURG    SUNNY     51  25  36 W9        30.16F
PETERSBURG*    MOSUNNY   48  28  45 CALM      30.18F

$$

VAZ036>039-050-171900-
CENTRAL FOOTHILLS

CITY           SKY/WX    TMP DP  RH WIND       PRES   REMARKS
CHARLOTTESVILL CLOUDY    55  24  30 S8        30.18F
CULPEPER*      SUNNY     54  23  29 N7        30.18F
ORANGE*        CLOUDY    50  28  43 CALM      30.19F
GORDONSVILLE*  CLOUDY    53  27  36 S6        30.18F
WARRENTON*     NOT AVBL

$$

VAZ055>057-171900-
NORTH AND CENTRAL PIEDMONT

CITY           SKY/WX    TMP DP  RH WIND       PRES   REMARKS
FREDERICKSBRG* SUNNY     53  29  40 NW6       30.18F
STAFFORD*      SUNNY     52  27  38 W5        30.22F

$$

NCZ024-NYZ072-PAZ021-071-VAZ022-071-171900-
OTHER REGIONAL OBSERVATIONS

CITY           SKY/WX    TMP DP  RH WIND       PRES   REMARKS
NEW YORK CITY  SUNNY     46  22  38 NW8       30.08R
PHILADELPHIA   MOSUNNY   49  21  33 W18       30.13F
PITTSBURGH     CLOUDY    40  27  59 N3        30.20F
ROANOKE        MOSUNNY   51  28  41 CALM      30.20F
RICHMOND       PTSUNNY   53  29  39 N5        30.19F
RALEIGH        PTSUNNY   55  32  41 VRB3      30.19F

$$

ANZ530>537-171900-
MARINE OBSERVATIONS

STATION/POSITION TIME  TEMP    WIND        PRES
                       AIR SEA DIR/SP/G
                 (UTC) (F)     (DEG/KT/KT) (MB)
THOMAS PT LIGHT  1800   49 53  320/  9/ 11   N/A
BALT KEY BRIDGE  1748   48     300/  9/ 11 1021.3F
COVE POINT       1748   49     360/ 10/ 12 1022.1F
LEWISETTA        1748   49 51  320/ 10/ 14 1021.9F
SOLOMONS ISLAND  1736   50 55  300/  8/ 12 1021.3F
PINEY POINT      1748          310/ 15/ 16   N/A

$$





USA.gov is the U.S. government's official web portal to all federal, state and local government web resources and services.